iso_date,epoch_date,Year,Hour,Min,DOY,POS_DOY,Lat,Lon,BP,Ts,Ta,has_bp,has_ts,has_ta,BuoyID,Buoy_Type,Buoy_Owner,Logistics,Hemisphere
2020-10-24T08:57:59Z,1603529879,2020,8,58,298.3736,298.3736,81.262,19.699,1011.8,3.28,-999.0,yes,yes,no,300534060319430,BD2GI,AOML,UNKNOWN,North
2020-10-24T09:00:00Z,1603530000,2020,9,0,298.375,298.375,81.262,19.699,1011.8,3.25,-999.0,yes,yes,no,300534060319430,BD2GI,AOML,UNKNOWN,North
2020-10-24T10:00:02Z,1603533603,2020,10,0,298.4167,298.4167,81.266,19.725,1012.0,3.17,-999.0,yes,yes,no,300534060319430,BD2GI,AOML,UNKNOWN,North
2020-10-24T10:59:57Z,1603537197,2020,11,0,298.4583,298.4583,81.27,19.755,1012.2,3.03,-999.0,yes,yes,no,300534060319430,BD2GI,AOML,UNKNOWN,North
2020-10-24T12:00:00Z,1603540800,2020,12,0,298.5,298.5,81.271,19.79,1012.1,2.99,-999.0,yes,yes,no,300534060319430,BD2GI,AOML,UNKNOWN,North
2020-10-24T13:00:02Z,1603544403,2020,13,0,298.5417,298.5417,81.271,19.827,1012.0,2.87,-999.0,yes,yes,no,300534060319430,BD2GI,AOML,UNKNOWN,North
2020-10-24T13:59:57Z,1603547997,2020,14,0,298.5833,298.5833,81.272,19.86,1012.1,2.71,-999.0,yes,yes,no,300534060319430,BD2GI,AOML,UNKNOWN,North
2020-10-24T15:00:00Z,1603551600,2020,15,0,298.625,298.625,81.271,19.889,1011.9,2.64,-999.0,yes,yes,no,300534060319430,BD2GI,AOML,UNKNOWN,North
2020-10-24T16:00:02Z,1603555203,2020,16,0,298.6667,298.6667,81.27,19.926,1011.9,2.57,-999.0,yes,yes,no,300534060319430,BD2GI,AOML,UNKNOWN,North
2020-10-24T16:59:57Z,1603558797,2020,17,0,298.7083,298.7083,81.268,19.969,1011.8,2.48,-999.0,yes,yes,no,300534060319430,BD2GI,AOML,UNKNOWN,North
2020-10-24T18:00:00Z,1603562400,2020,18,0,298.75,298.75,81.266,20.014,1011.9,2.4,-999.0,yes,yes,no,300534060319430,BD2GI,AOML,UNKNOWN,North
2020-10-24T19:00:02Z,1603566003,2020,19,0,298.7917,298.7917,81.265,20.061,1012.0,2.37,-999.0,yes,yes,no,300534060319430,BD2GI,AOML,UNKNOWN,North
2020-10-24T19:59:57Z,1603569597,2020,20,0,298.8333,298.8333,81.265,20.109,1012.2,2.39,-999.0,yes,yes,no,300534060319430,BD2GI,AOML,UNKNOWN,North
2020-10-24T21:00:00Z,1603573200,2020,21,0,298.875,298.875,81.265,20.159,1012.2,2.43,-999.0,yes,yes,no,300534060319430,BD2GI,AOML,UNKNOWN,North
2020-10-24T22:00:02Z,1603576803,2020,22,0,298.9167,298.9167,81.266,20.218,1012.3,2.4,-999.0,yes,yes,no,300534060319430,BD2GI,AOML,UNKNOWN,North
2020-10-24T22:59:57Z,1603580397,2020,23,0,298.9583,298.9583,81.267,20.274,1012.3,2.41,-999.0,yes,yes,no,300534060319430,BD2GI,AOML,UNKNOWN,North
2020-10-25T00:00:00Z,1603584000,2020,0,0,299.0,299.0,81.267,20.332,1012.2,2.45,-999.0,yes,yes,no,300534060319430,BD2GI,AOML,UNKNOWN,North
2020-10-25T01:00:02Z,1603587603,2020,1,0,299.0417,299.0417,81.268,20.387,1012.0,2.41,-999.0,yes,yes,no,300534060319430,BD2GI,AOML,UNKNOWN,North
2020-10-25T01:59:57Z,1603591197,2020,2,0,299.0833,299.0833,81.268,20.441,1011.8,2.41,-999.0,yes,yes,no,300534060319430,BD2GI,AOML,UNKNOWN,North
2020-10-25T03:00:00Z,1603594800,2020,3,0,299.125,299.125,81.269,20.491,1011.7,2.41,-999.0,yes,yes,no,300534060319430,BD2GI,AOML,UNKNOWN,North
2020-10-25T04:00:02Z,1603598403,2020,4,0,299.1667,299.1667,81.27,20.542,1011.5,2.4,-999.0,yes,yes,no,300534060319430,BD2GI,AOML,UNKNOWN,North
2020-10-25T04:59:57Z,1603601997,2020,5,0,299.2083,299.2083,81.271,20.591,1011.3,2.43,-999.0,yes,yes,no,300534060319430,BD2GI,AOML,UNKNOWN,North
2020-10-25T06:00:00Z,1603605600,2020,6,0,299.25,299.25,81.272,20.635,1011.3,2.39,-999.0,yes,yes,no,300534060319430,BD2GI,AOML,UNKNOWN,North
2020-10-25T07:00:02Z,1603609203,2020,7,0,299.2917,299.2917,81.274,20.674,1011.0,2.49,-999.0,yes,yes,no,300534060319430,BD2GI,AOML,UNKNOWN,North
2020-10-25T07:59:57Z,1603612797,2020,8,0,299.3333,299.3333,81.278,20.709,1010.9,2.88,-999.0,yes,yes,no,300534060319430,BD2GI,AOML,UNKNOWN,North
2020-10-25T09:00:00Z,1603616400,2020,9,0,299.375,299.375,81.28,20.744,1010.9,3.56,-999.0,yes,yes,no,300534060319430,BD2GI,AOML,UNKNOWN,North
2020-10-25T10:00:02Z,1603620003,2020,10,0,299.4167,299.4167,81.283,20.777,1010.7,3.46,-999.0,yes,yes,no,300534060319430,BD2GI,AOML,UNKNOWN,North
2020-10-25T10:59:57Z,1603623597,2020,11,0,299.4583,299.4583,81.285,20.799,1010.5,3.29,-999.0,yes,yes,no,300534060319430,BD2GI,AOML,UNKNOWN,North
2020-10-25T12:00:00Z,1603627200,2020,12,0,299.5,299.5,81.288,20.813,1010.2,3.49,-999.0,yes,yes,no,300534060319430,BD2GI,AOML,UNKNOWN,North
2020-10-25T13:00:02Z,1603630803,2020,13,0,299.5417,299.5417,81.292,20.834,1010.4,2.35,-999.0,yes,yes,no,300534060319430,BD2GI,AOML,UNKNOWN,North
2020-10-25T13:59:57Z,1603634397,2020,14,0,299.5833,299.5833,81.294,20.854,1010.5,2.29,-999.0,yes,yes,no,300534060319430,BD2GI,AOML,UNKNOWN,North
2020-10-25T15:00:00Z,1603638000,2020,15,0,299.625,299.625,81.295,20.872,1010.8,2.46,-999.0,yes,yes,no,300534060319430,BD2GI,AOML,UNKNOWN,North
2020-10-25T16:00:02Z,1603641603,2020,16,0,299.6667,299.6667,81.295,20.889,1011.0,3.02,-999.0,yes,yes,no,300534060319430,BD2GI,AOML,UNKNOWN,North
2020-10-25T16:59:57Z,1603645197,2020,17,0,299.7083,299.7083,81.296,20.903,1010.9,3.1,-999.0,yes,yes,no,300534060319430,BD2GI,AOML,UNKNOWN,North
2020-10-25T18:00:00Z,1603648800,2020,18,0,299.75,299.75,81.296,20.921,1010.7,3.26,-999.0,yes,yes,no,300534060319430,BD2GI,AOML,UNKNOWN,North
2020-10-25T19:00:02Z,1603652403,2020,19,0,299.7917,299.7917,81.297,20.945,1010.2,3.32,-999.0,yes,yes,no,300534060319430,BD2GI,AOML,UNKNOWN,North
2020-10-25T19:59:57Z,1603655997,2020,20,0,299.8333,299.8333,81.299,20.978,1009.3,3.35,-999.0,yes,yes,no,300534060319430,BD2GI,AOML,UNKNOWN,North
2020-10-25T21:00:00Z,1603659600,2020,21,0,299.875,299.875,81.3,21.02,1007.6,3.4,-999.0,yes,yes,no,300534060319430,BD2GI,AOML,UNKNOWN,North
2020-10-25T22:00:02Z,1603663203,2020,22,0,299.9167,299.9167,81.302,21.065,1006.0,3.39,-999.0,yes,yes,no,300534060319430,BD2GI,AOML,UNKNOWN,North
2020-10-25T22:59:57Z,1603666797,2020,23,0,299.9583,299.9583,81.304,21.116,1003.9,3.36,-999.0,yes,yes,no,300534060319430,BD2GI,AOML,UNKNOWN,North
2020-10-26T00:00:00Z,1603670400,2020,0,0,300.0,300.0,81.306,21.169,1003.4,3.37,-999.0,yes,yes,no,300534060319430,BD2GI,AOML,UNKNOWN,North
2020-10-26T01:00:02Z,1603674003,2020,1,0,300.0417,300.0417,81.307,21.217,1004.0,3.4,-999.0,yes,yes,no,300534060319430,BD2GI,AOML,UNKNOWN,North
2020-10-26T01:59:57Z,1603677597,2020,2,0,300.0833,300.0833,81.309,21.267,1005.3,3.39,-999.0,yes,yes,no,300534060319430,BD2GI,AOML,UNKNOWN,North
2020-10-26T03:00:00Z,1603681200,2020,3,0,300.125,300.125,81.311,21.312,1007.5,3.39,-999.0,yes,yes,no,300534060319430,BD2GI,AOML,UNKNOWN,North
2020-10-26T04:00:02Z,1603684803,2020,4,0,300.1667,300.1667,81.313,21.354,1008.2,3.19,-999.0,yes,yes,no,300534060319430,BD2GI,AOML,UNKNOWN,North
2020-10-26T04:59:57Z,1603688397,2020,5,0,300.2083,300.2083,81.316,21.399,1007.2,3.12,-999.0,yes,yes,no,300534060319430,BD2GI,AOML,UNKNOWN,North
2020-10-26T06:00:00Z,1603692000,2020,6,0,300.25,300.25,81.32,21.44,1006.5,3.09,-999.0,yes,yes,no,300534060319430,BD2GI,AOML,UNKNOWN,North
2020-10-26T07:00:02Z,1603695603,2020,7,0,300.2917,300.2917,81.325,21.486,1005.8,3.04,-999.0,yes,yes,no,300534060319430,BD2GI,AOML,UNKNOWN,North
2020-10-26T07:59:57Z,1603699197,2020,8,0,300.3333,300.3333,81.329,21.541,1005.4,3.04,-999.0,yes,yes,no,300534060319430,BD2GI,AOML,UNKNOWN,North
2020-10-26T09:00:00Z,1603702800,2020,9,0,300.375,300.375,81.332,21.6,1005.3,3.07,-999.0,yes,yes,no,300534060319430,BD2GI,AOML,UNKNOWN,North
2020-10-26T10:00:02Z,1603706403,2020,10,0,300.4167,300.4167,81.334,21.669,1005.1,3.05,-999.0,yes,yes,no,300534060319430,BD2GI,AOML,UNKNOWN,North
2020-10-26T10:59:57Z,1603709997,2020,11,0,300.4583,300.4583,81.334,21.732,1005.1,3.14,-999.0,yes,yes,no,300534060319430,BD2GI,AOML,UNKNOWN,North
2020-10-26T12:00:00Z,1603713600,2020,12,0,300.5,300.5,81.334,21.794,1005.0,3.15,-999.0,yes,yes,no,300534060319430,BD2GI,AOML,UNKNOWN,North
2020-10-26T13:00:02Z,1603717203,2020,13,0,300.5417,300.5417,81.334,21.846,1004.8,3.18,-999.0,yes,yes,no,300534060319430,BD2GI,AOML,UNKNOWN,North
2020-10-26T13:59:57Z,1603720797,2020,14,0,300.5833,300.5833,81.335,21.889,1004.8,3.21,-999.0,yes,yes,no,300534060319430,BD2GI,AOML,UNKNOWN,North
2020-10-26T15:00:00Z,1603724400,2020,15,0,300.625,300.625,81.337,21.935,1004.4,3.27,-999.0,yes,yes,no,300534060319430,BD2GI,AOML,UNKNOWN,North
2020-10-26T16:00:02Z,1603728003,2020,16,0,300.6667,300.6667,81.339,21.974,1004.2,3.3,-999.0,yes,yes,no,300534060319430,BD2GI,AOML,UNKNOWN,North
2020-10-26T16:59:57Z,1603731597,2020,17,0,300.7083,300.7083,81.341,22.012,1004.0,3.35,-999.0,yes,yes,no,300534060319430,BD2GI,AOML,UNKNOWN,North
2020-10-26T18:00:00Z,1603735200,2020,18,0,300.75,300.75,81.343,22.047,1003.7,3.45,-999.0,yes,yes,no,300534060319430,BD2GI,AOML,UNKNOWN,North
2020-10-26T19:00:02Z,1603738803,2020,19,0,300.7917,300.7917,81.346,22.076,1003.4,3.49,-999.0,yes,yes,no,300534060319430,BD2GI,AOML,UNKNOWN,North
2020-10-26T19:59:57Z,1603742397,2020,20,0,300.8333,300.8333,81.349,22.105,1003.1,3.47,-999.0,yes,yes,no,300534060319430,BD2GI,AOML,UNKNOWN,North
2020-10-26T21:00:00Z,1603746000,2020,21,0,300.875,300.875,81.353,22.141,1003.0,3.46,-999.0,yes,yes,no,300534060319430,BD2GI,AOML,UNKNOWN,North
2020-10-26T22:00:02Z,1603749603,2020,22,0,300.9167,300.9167,81.357,22.189,1002.7,3.48,-999.0,yes,yes,no,300534060319430,BD2GI,AOML,UNKNOWN,North
2020-10-26T22:59:57Z,1603753197,2020,23,0,300.9583,300.9583,81.36,22.236,1002.4,3.49,-999.0,yes,yes,no,300534060319430,BD2GI,AOML,UNKNOWN,North
2020-10-27T00:00:00Z,1603756800,2020,0,0,301.0,301.0,81.362,22.283,1002.3,3.49,-999.0,yes,yes,no,300534060319430,BD2GI,AOML,UNKNOWN,North
2020-10-27T01:00:02Z,1603760403,2020,1,0,301.0417,301.0417,81.365,22.332,1002.0,3.49,-999.0,yes,yes,no,300534060319430,BD2GI,AOML,UNKNOWN,North
2020-10-27T01:59:57Z,1603763997,2020,2,0,301.0833,301.0833,81.367,22.382,1002.1,3.48,-999.0,yes,yes,no,300534060319430,BD2GI,AOML,UNKNOWN,North
2020-10-27T03:00:00Z,1603767600,2020,3,0,301.125,301.125,81.368,22.429,1002.1,3.48,-999.0,yes,yes,no,300534060319430,BD2GI,AOML,UNKNOWN,North
2020-10-27T04:00:02Z,1603771203,2020,4,0,301.1667,301.1667,81.368,22.47,1002.1,3.41,-999.0,yes,yes,no,300534060319430,BD2GI,AOML,UNKNOWN,North
2020-10-27T04:59:57Z,1603774797,2020,5,0,301.2083,301.2083,81.367,22.509,1001.9,3.36,-999.0,yes,yes,no,300534060319430,BD2GI,AOML,UNKNOWN,North
2020-10-27T06:00:00Z,1603778400,2020,6,0,301.25,301.25,81.367,22.535,1001.5,3.27,-999.0,yes,yes,no,300534060319430,BD2GI,AOML,UNKNOWN,North
2020-10-27T07:00:02Z,1603782003,2020,7,0,301.2917,301.2917,81.368,22.567,1001.7,3.28,-999.0,yes,yes,no,300534060319430,BD2GI,AOML,UNKNOWN,North
2020-10-27T07:59:57Z,1603785597,2020,8,0,301.3333,301.3333,81.369,22.598,1001.5,3.27,-999.0,yes,yes,no,300534060319430,BD2GI,AOML,UNKNOWN,North
2020-10-27T09:00:00Z,1603789200,2020,9,0,301.375,301.375,81.371,22.631,1001.4,3.22,-999.0,yes,yes,no,300534060319430,BD2GI,AOML,UNKNOWN,North
2020-10-27T10:00:02Z,1603792803,2020,10,0,301.4167,301.4167,81.373,22.674,1001.3,3.23,-999.0,yes,yes,no,300534060319430,BD2GI,AOML,UNKNOWN,North
2020-10-27T10:59:57Z,1603796397,2020,11,0,301.4583,301.4583,81.376,22.718,1001.0,3.22,-999.0,yes,yes,no,300534060319430,BD2GI,AOML,UNKNOWN,North
2020-10-27T12:00:00Z,1603800000,2020,12,0,301.5,301.5,81.377,22.767,1000.6,3.21,-999.0,yes,yes,no,300534060319430,BD2GI,AOML,UNKNOWN,North
2020-10-27T13:00:02Z,1603803603,2020,13,0,301.5417,301.5417,81.379,22.812,1000.4,3.2,-999.0,yes,yes,no,300534060319430,BD2GI,AOML,UNKNOWN,North
2020-10-27T13:59:57Z,1603807197,2020,14,0,301.5833,301.5833,81.379,22.85,1000.0,3.18,-999.0,yes,yes,no,300534060319430,BD2GI,AOML,UNKNOWN,North
2020-10-27T15:00:00Z,1603810800,2020,15,0,301.625,301.625,81.38,22.877,999.5,3.14,-999.0,yes,yes,no,300534060319430,BD2GI,AOML,UNKNOWN,North
2020-10-27T16:00:02Z,1603814403,2020,16,0,301.6667,301.6667,81.381,22.905,999.1,3.09,-999.0,yes,yes,no,300534060319430,BD2GI,AOML,UNKNOWN,North
2020-10-27T16:59:57Z,1603817997,2020,17,0,301.7083,301.7083,81.382,22.921,998.6,3.03,-999.0,yes,yes,no,300534060319430,BD2GI,AOML,UNKNOWN,North
2020-10-27T18:00:00Z,1603821600,2020,18,0,301.75,301.75,81.384,22.934,998.1,2.99,-999.0,yes,yes,no,300534060319430,BD2GI,AOML,UNKNOWN,North
2020-10-27T19:00:02Z,1603825203,2020,19,0,301.7917,301.7917,81.387,22.942,997.5,2.95,-999.0,yes,yes,no,300534060319430,BD2GI,AOML,UNKNOWN,North
2020-10-27T19:59:57Z,1603828797,2020,20,0,301.8333,301.8333,81.389,22.953,996.9,2.94,-999.0,yes,yes,no,300534060319430,BD2GI,AOML,UNKNOWN,North
2020-10-27T21:00:00Z,1603832400,2020,21,0,301.875,301.875,81.392,22.97,996.3,2.92,-999.0,yes,yes,no,300534060319430,BD2GI,AOML,UNKNOWN,North
2020-10-27T22:00:02Z,1603836003,2020,22,0,301.9167,301.9167,81.396,22.994,995.8,2.93,-999.0,yes,yes,no,300534060319430,BD2GI,AOML,UNKNOWN,North
2020-10-27T22:59:57Z,1603839597,2020,23,0,301.9583,301.9583,81.399,23.022,994.9,2.95,-999.0,yes,yes,no,300534060319430,BD2GI,AOML,UNKNOWN,North
2020-10-28T00:00:00Z,1603843200,2020,0,0,302.0,302.0,81.402,23.054,994.0,3.01,-999.0,yes,yes,no,300534060319430,BD2GI,AOML,UNKNOWN,North
2020-10-28T01:00:02Z,1603846803,2020,1,0,302.0417,302.0417,81.404,23.085,992.8,3.01,-999.0,yes,yes,no,300534060319430,BD2GI,AOML,UNKNOWN,North
2020-10-28T01:59:57Z,1603850397,2020,2,0,302.0833,302.0833,81.406,23.109,991.7,3.0,-999.0,yes,yes,no,300534060319430,BD2GI,AOML,UNKNOWN,North
2020-10-28T03:00:00Z,1603854000,2020,3,0,302.125,302.125,81.408,23.131,990.8,3.01,-999.0,yes,yes,no,300534060319430,BD2GI,AOML,UNKNOWN,North
2020-10-28T04:00:02Z,1603857603,2020,4,0,302.1667,302.1667,81.411,23.148,989.5,3.0,-999.0,yes,yes,no,300534060319430,BD2GI,AOML,UNKNOWN,North
2020-10-28T04:59:57Z,1603861197,2020,5,0,302.2083,302.2083,81.415,23.165,988.5,3.01,-999.0,yes,yes,no,300534060319430,BD2GI,AOML,UNKNOWN,North
2020-10-28T06:00:00Z,1603864800,2020,6,0,302.25,302.25,81.419,23.187,987.5,3.03,-999.0,yes,yes,no,300534060319430,BD2GI,AOML,UNKNOWN,North
2020-10-28T07:00:02Z,1603868403,2020,7,0,302.2917,302.2917,81.423,23.214,986.9,3.04,-999.0,yes,yes,no,300534060319430,BD2GI,AOML,UNKNOWN,North
2020-10-28T07:59:57Z,1603871997,2020,8,0,302.3333,302.3333,81.427,23.251,986.3,3.05,-999.0,yes,yes,no,300534060319430,BD2GI,AOML,UNKNOWN,North
2020-10-28T09:00:00Z,1603875600,2020,9,0,302.375,302.375,81.431,23.286,986.0,3.07,-999.0,yes,yes,no,300534060319430,BD2GI,AOML,UNKNOWN,North
2020-10-28T10:00:02Z,1603879203,2020,10,0,302.4167,302.4167,81.436,23.329,985.8,3.08,-999.0,yes,yes,no,300534060319430,BD2GI,AOML,UNKNOWN,North
2020-10-28T10:59:57Z,1603882797,2020,11,0,302.4583,302.4583,81.439,23.373,985.5,3.08,-999.0,yes,yes,no,300534060319430,BD2GI,AOML,UNKNOWN,North
2020-10-28T12:00:00Z,1603886400,2020,12,0,302.5,302.5,81.443,23.425,985.3,3.26,-999.0,yes,yes,no,300534060319430,BD2GI,AOML,UNKNOWN,North
2020-10-28T13:00:02Z,1603890003,2020,13,0,302.5417,302.5417,81.445,23.481,985.1,3.21,-999.0,yes,yes,no,300534060319430,BD2GI,AOML,UNKNOWN,North
2020-10-28T13:59:57Z,1603893597,2020,14,0,302.5833,302.5833,81.447,23.541,984.6,3.18,-999.0,yes,yes,no,300534060319430,BD2GI,AOML,UNKNOWN,North
2020-10-28T15:00:00Z,1603897200,2020,15,0,302.625,302.625,81.448,23.593,984.3,3.19,-999.0,yes,yes,no,300534060319430,BD2GI,AOML,UNKNOWN,North
2020-10-28T16:00:02Z,1603900803,2020,16,0,302.6667,302.6667,81.449,23.641,984.1,3.24,-999.0,yes,yes,no,300534060319430,BD2GI,AOML,UNKNOWN,North
2020-10-28T16:59:57Z,1603904397,2020,17,0,302.7083,302.7083,81.45,23.68,984.0,3.19,-999.0,yes,yes,no,300534060319430,BD2GI,AOML,UNKNOWN,North
2020-10-28T18:00:00Z,1603908000,2020,18,0,302.75,302.75,81.453,23.73,983.7,3.22,-999.0,yes,yes,no,300534060319430,BD2GI,AOML,UNKNOWN,North
2020-10-28T19:00:02Z,1603911603,2020,19,0,302.7917,302.7917,81.456,23.766,983.5,3.22,-999.0,yes,yes,no,300534060319430,BD2GI,AOML,UNKNOWN,North
2020-10-28T19:59:57Z,1603915197,2020,20,0,302.8333,302.8333,81.456,23.812,984.1,3.22,-999.0,yes,yes,no,300534060319430,BD2GI,AOML,UNKNOWN,North
2020-10-28T21:00:00Z,1603918800,2020,21,0,302.875,302.875,81.458,23.859,984.6,3.15,-999.0,yes,yes,no,300534060319430,BD2GI,AOML,UNKNOWN,North
2020-10-28T22:00:02Z,1603922403,2020,22,0,302.9167,302.9167,81.46,23.925,985.1,3.07,-999.0,yes,yes,no,300534060319430,BD2GI,AOML,UNKNOWN,North
2020-10-28T22:59:57Z,1603925997,2020,23,0,302.9583,302.9583,81.46,24.009,985.7,3.03,-999.0,yes,yes,no,300534060319430,BD2GI,AOML,UNKNOWN,North
2020-10-29T00:00:00Z,1603929600,2020,0,0,303.0,303.0,81.457,24.096,986.2,2.99,-999.0,yes,yes,no,300534060319430,BD2GI,AOML,UNKNOWN,North
2020-10-29T01:00:02Z,1603933203,2020,1,0,303.0417,303.0417,81.453,24.189,986.5,2.95,-999.0,yes,yes,no,300534060319430,BD2GI,AOML,UNKNOWN,North
2020-10-29T01:59:57Z,1603936797,2020,2,0,303.0833,303.0833,81.447,24.28,987.3,2.92,-999.0,yes,yes,no,300534060319430,BD2GI,AOML,UNKNOWN,North
2020-10-29T03:00:00Z,1603940400,2020,3,0,303.125,303.125,81.44,24.346,987.9,2.89,-999.0,yes,yes,no,300534060319430,BD2GI,AOML,UNKNOWN,North
2020-10-29T04:00:02Z,1603944003,2020,4,0,303.1667,303.1667,81.434,24.398,988.0,2.88,-999.0,yes,yes,no,300534060319430,BD2GI,AOML,UNKNOWN,North
2020-10-29T04:59:57Z,1603947597,2020,5,0,303.2083,303.2083,81.429,24.438,988.4,2.85,-999.0,yes,yes,no,300534060319430,BD2GI,AOML,UNKNOWN,North
2020-10-29T06:00:00Z,1603951200,2020,6,0,303.25,303.25,81.426,24.474,988.7,2.78,-999.0,yes,yes,no,300534060319430,BD2GI,AOML,UNKNOWN,North
2020-10-29T07:00:02Z,1603954803,2020,7,0,303.2917,303.2917,81.426,24.474,989.4,2.74,-999.0,yes,yes,no,300534060319430,BD2GI,AOML,UNKNOWN,North
2020-10-29T07:59:57Z,1603958397,2020,8,0,303.3333,303.3333,81.423,24.557,989.8,2.66,-999.0,yes,yes,no,300534060319430,BD2GI,AOML,UNKNOWN,North
2020-10-29T09:00:00Z,1603962000,2020,9,0,303.375,303.375,81.421,24.603,990.1,2.62,-999.0,yes,yes,no,300534060319430,BD2GI,AOML,UNKNOWN,North
2020-10-29T10:00:02Z,1603965603,2020,10,0,303.4167,303.4167,81.419,24.672,990.3,2.61,-999.0,yes,yes,no,300534060319430,BD2GI,AOML,UNKNOWN,North
2020-10-29T10:59:57Z,1603969197,2020,11,0,303.4583,303.4583,81.413,24.749,990.9,2.59,-999.0,yes,yes,no,300534060319430,BD2GI,AOML,UNKNOWN,North
2020-10-29T12:00:00Z,1603972800,2020,12,0,303.5,303.5,81.407,24.835,991.4,2.6,-999.0,yes,yes,no,300534060319430,BD2GI,AOML,UNKNOWN,North
2020-10-29T13:00:02Z,1603976403,2020,13,0,303.5417,303.5417,81.398,24.904,991.5,2.59,-999.0,yes,yes,no,300534060319430,BD2GI,AOML,UNKNOWN,North
2020-10-29T13:59:57Z,1603979997,2020,14,0,303.5833,303.5833,81.386,24.965,991.8,2.54,-999.0,yes,yes,no,300534060319430,BD2GI,AOML,UNKNOWN,North
2020-10-29T15:00:00Z,1603983600,2020,15,0,303.625,303.625,81.386,24.965,992.3,2.49,-999.0,yes,yes,no,300534060319430,BD2GI,AOML,UNKNOWN,North
2020-10-29T16:00:02Z,1603987203,2020,16,0,303.6667,303.6667,81.364,25.014,992.7,2.38,-999.0,yes,yes,no,300534060319430,BD2GI,AOML,UNKNOWN,North
2020-10-29T16:59:57Z,1603990797,2020,17,0,303.7083,303.7083,81.358,25.012,993.1,2.36,-999.0,yes,yes,no,300534060319430,BD2GI,AOML,UNKNOWN,North
2020-10-29T18:00:00Z,1603994400,2020,18,0,303.75,303.75,81.354,25.031,993.6,1.66,-999.0,yes,yes,no,300534060319430,BD2GI,AOML,UNKNOWN,North
2020-10-29T19:00:02Z,1603998003,2020,19,0,303.7917,303.7917,81.35,25.047,994.0,1.43,-999.0,yes,yes,no,300534060319430,BD2GI,AOML,UNKNOWN,North
2020-10-29T19:59:57Z,1604001597,2020,20,0,303.8333,303.8333,81.344,25.086,994.5,1.81,-999.0,yes,yes,no,300534060319430,BD2GI,AOML,UNKNOWN,North
2020-10-29T21:00:00Z,1604005200,2020,21,0,303.875,303.875,81.334,25.14,995.1,2.08,-999.0,yes,yes,no,300534060319430,BD2GI,AOML,UNKNOWN,North
2020-10-29T22:00:02Z,1604008803,2020,22,0,303.9167,303.9167,81.322,25.184,995.8,2.1,-999.0,yes,yes,no,300534060319430,BD2GI,AOML,UNKNOWN,North
2020-10-29T22:59:57Z,1604012397,2020,23,0,303.9583,303.9583,81.311,25.204,996.3,2.12,-999.0,yes,yes,no,300534060319430,BD2GI,AOML,UNKNOWN,North
2020-10-30T00:00:00Z,1604016000,2020,0,0,304.0,304.0,81.311,25.204,996.8,1.98,-999.0,yes,yes,no,300534060319430,BD2GI,AOML,UNKNOWN,North
2020-10-30T01:00:02Z,1604019603,2020,1,0,304.0417,304.0417,81.288,25.225,997.8,2.0,-999.0,yes,yes,no,300534060319430,BD2GI,AOML,UNKNOWN,North
2020-10-30T01:59:57Z,1604023197,2020,2,0,304.0833,304.0833,81.277,25.234,998.4,1.96,-999.0,yes,yes,no,300534060319430,BD2GI,AOML,UNKNOWN,North
2020-10-30T03:00:00Z,1604026800,2020,3,0,304.125,304.125,81.268,25.231,999.0,2.06,-999.0,yes,yes,no,300534060319430,BD2GI,AOML,UNKNOWN,North
2020-10-30T04:00:02Z,1604030403,2020,4,0,304.1667,304.1667,81.263,25.213,999.9,2.14,-999.0,yes,yes,no,300534060319430,BD2GI,AOML,UNKNOWN,North
2020-10-30T04:59:57Z,1604033997,2020,5,0,304.2083,304.2083,81.259,25.199,1000.5,2.19,-999.0,yes,yes,no,300534060319430,BD2GI,AOML,UNKNOWN,North
2020-10-30T06:00:00Z,1604037600,2020,6,0,304.25,304.25,81.256,25.194,1001.3,1.65,-999.0,yes,yes,no,300534060319430,BD2GI,AOML,UNKNOWN,North
2020-10-30T07:00:02Z,1604041203,2020,7,0,304.2917,304.2917,81.252,25.19,1002.1,1.69,-999.0,yes,yes,no,300534060319430,BD2GI,AOML,UNKNOWN,North
2020-10-30T07:59:57Z,1604044797,2020,8,0,304.3333,304.3333,81.248,25.189,1002.9,1.8,-999.0,yes,yes,no,300534060319430,BD2GI,AOML,UNKNOWN,North
2020-10-30T09:00:00Z,1604048400,2020,9,0,304.375,304.375,81.243,25.186,1003.7,1.86,-999.0,yes,yes,no,300534060319430,BD2GI,AOML,UNKNOWN,North
2020-10-30T10:00:02Z,1604052003,2020,10,0,304.4167,304.4167,81.238,25.186,1004.8,2.17,-999.0,yes,yes,no,300534060319430,BD2GI,AOML,UNKNOWN,North
2020-10-30T10:59:57Z,1604055597,2020,11,0,304.4583,304.4583,81.231,25.186,1006.0,2.04,-999.0,yes,yes,no,300534060319430,BD2GI,AOML,UNKNOWN,North
2020-10-30T12:00:00Z,1604059200,2020,12,0,304.5,304.5,81.223,25.182,1007.0,2.25,-999.0,yes,yes,no,300534060319430,BD2GI,AOML,UNKNOWN,North
2020-10-30T13:00:02Z,1604062803,2020,13,0,304.5417,304.5417,81.215,25.162,1008.0,2.21,-999.0,yes,yes,no,300534060319430,BD2GI,AOML,UNKNOWN,North
2020-10-30T13:59:57Z,1604066397,2020,14,0,304.5833,304.5833,81.208,25.127,1009.1,2.3,-999.0,yes,yes,no,300534060319430,BD2GI,AOML,UNKNOWN,North
2020-10-30T15:00:00Z,1604070000,2020,15,0,304.625,304.625,81.205,25.094,1009.6,2.38,-999.0,yes,yes,no,300534060319430,BD2GI,AOML,UNKNOWN,North
2020-10-30T16:00:02Z,1604073603,2020,16,0,304.6667,304.6667,81.204,25.06,1010.4,2.15,-999.0,yes,yes,no,300534060319430,BD2GI,AOML,UNKNOWN,North
2020-10-30T16:59:57Z,1604077197,2020,17,0,304.7083,304.7083,81.206,25.036,1010.7,2.04,-999.0,yes,yes,no,300534060319430,BD2GI,AOML,UNKNOWN,North
2020-10-30T18:00:00Z,1604080800,2020,18,0,304.75,304.75,81.21,25.017,1011.3,2.25,-999.0,yes,yes,no,300534060319430,BD2GI,AOML,UNKNOWN,North
2020-10-30T19:00:02Z,1604084403,2020,19,0,304.7917,304.7917,81.214,25.014,1011.4,2.5,-999.0,yes,yes,no,300534060319430,BD2GI,AOML,UNKNOWN,North
2020-10-30T19:59:57Z,1604087997,2020,20,0,304.8333,304.8333,81.217,25.029,1012.4,2.71,-999.0,yes,yes,no,300534060319430,BD2GI,AOML,UNKNOWN,North
2020-10-30T21:00:00Z,1604091600,2020,21,0,304.875,304.875,81.217,25.048,1012.6,2.12,-999.0,yes,yes,no,300534060319430,BD2GI,AOML,UNKNOWN,North
2020-10-30T22:00:02Z,1604095203,2020,22,0,304.9167,304.9167,81.214,25.063,1013.1,2.09,-999.0,yes,yes,no,300534060319430,BD2GI,AOML,UNKNOWN,North
2020-10-30T22:59:57Z,1604098797,2020,23,0,304.9583,304.9583,81.21,25.063,1013.3,2.26,-999.0,yes,yes,no,300534060319430,BD2GI,AOML,UNKNOWN,North
2020-10-31T00:00:00Z,1604102400,2020,0,0,305.0,305.0,81.207,25.055,1013.1,2.16,-999.0,yes,yes,no,300534060319430,BD2GI,AOML,UNKNOWN,North
2020-10-31T01:00:02Z,1604106003,2020,1,0,305.0417,305.0417,81.204,25.045,1013.0,2.3,-999.0,yes,yes,no,300534060319430,BD2GI,AOML,UNKNOWN,North
2020-10-31T01:59:57Z,1604109597,2020,2,0,305.0833,305.0833,81.203,25.014,1013.1,2.13,-999.0,yes,yes,no,300534060319430,BD2GI,AOML,UNKNOWN,North
2020-10-31T03:00:00Z,1604113200,2020,3,0,305.125,305.125,81.204,24.982,1013.3,2.07,-999.0,yes,yes,no,300534060319430,BD2GI,AOML,UNKNOWN,North
2020-10-31T04:00:02Z,1604116803,2020,4,0,305.1667,305.1667,81.209,24.954,1013.1,2.11,-999.0,yes,yes,no,300534060319430,BD2GI,AOML,UNKNOWN,North
2020-10-31T04:59:57Z,1604120397,2020,5,0,305.2083,305.2083,81.215,24.931,1013.2,2.32,-999.0,yes,yes,no,300534060319430,BD2GI,AOML,UNKNOWN,North
2020-10-31T06:00:00Z,1604124000,2020,6,0,305.25,305.25,81.224,24.912,1013.0,2.03,-999.0,yes,yes,no,300534060319430,BD2GI,AOML,UNKNOWN,North